Home   Weather   Södertälje   Past weeks

Flag for Sweden Past Weather in Södertälje, Sweden — Yesterday and Last 2 Weeks

41 °F

Light rain. Cloudy.

Feels Like: 34 °F
Forecast: 44 / 45 °F
Wind: 13 mph from East

Location: Stockholm Bromma Airport

Current Time: Oct 23, 2016 at 8:24:47 AM

Latest Report: Oct 23, 2016 at 7:50 AM

Visibility: N/A

Pressure: 30.27 "Hg

Humidity: 93%

Dew Point: 39 °F

Location of SödertäljeLocation

Past Weather in Södertälje — Graph


Södertälje Temperature Yesterday

Maximum temperature yesterday: 41 °F (at 12:20 AM)
Minimum temperature yesterday: 39 °F (at 2:20 PM)
Average temperature yesterday: 41 °F

High & Low Weather Summary for the Past Weeks

High50 °F (Oct 9, 11:20 AM)100% (Oct 19, 4:50 AM)30.60 "Hg (Oct 19, 4:50 AM)
Low39 °F (Oct 22, 2:20 PM)57% (Oct 8, 9:20 AM)30.15 "Hg (Oct 19, 2:50 AM)
Average45 °F75%30.42 "Hg
* Reported Oct 8 7:20 AM — Oct 23 7:20 AM, Södertälje, Weather by CustomWeather, © 2016

Note: Actual official high and low records may vary slightly from our data, if they occured in-between our weather recording intervals... More about our weather records


Södertälje Weather History for the Previous 24 Hours

Scroll right to see more
Time TempWeatherWind HumidityBarometerVisibility
7:20 AM
Sun, Oct 23
41 °FLight rain. Mostly cloudy.12 mph87%30.27 "HgN/A
6:50 AM41 °FLight rain. Mostly cloudy.13 mph87%30.27 "HgN/A
6:20 AM41 °FLight rain. Mostly cloudy.13 mph87%30.27 "HgN/A
5:50 AM41 °FDrizzle. Overcast.9 mph87%30.27 "HgN/A
5:20 AM41 °FLight rain. Mostly cloudy.12 mph87%30.27 "HgN/A
4:50 AM41 °FLight rain. Low clouds.10 mph87%30.27 "Hg6 mi
4:20 AM41 °FPartly cloudy.12 mph87%30.27 "Hg5 mi
3:50 AM41 °FFog.12 mph87%30.27 "Hg3 mi
3:20 AM41 °FFog.12 mph87%30.27 "Hg5 mi
2:50 AM41 °FDrizzle. Low clouds.10 mph81%30.27 "HgN/A
2:20 AM41 °FDrizzle. Mostly cloudy.10 mph81%30.27 "HgN/A
1:50 AM39 °FMostly cloudy.12 mph87%30.30 "HgN/A
1:20 AM39 °FMostly cloudy.12 mph87%30.30 "HgN/A
12:50 AM39 °FDrizzle. Overcast.12 mph87%30.30 "HgN/A
12:20 AM41 °FDrizzle. Overcast.13 mph76%30.30 "HgN/A
11:50 PM
Sat, Oct 22
41 °FOvercast.14 mph70%30.30 "HgN/A
11:20 PM41 °FOvercast.15 mph70%30.30 "HgN/A
10:50 PM41 °FOvercast.12 mph70%30.30 "HgN/A
10:20 PM41 °FOvercast.12 mph70%30.30 "HgN/A
9:50 PM41 °FOvercast.10 mph70%30.33 "HgN/A
9:20 PM41 °FOvercast.13 mph70%30.33 "HgN/A
8:50 PM41 °FOvercast.13 mph70%30.33 "HgN/A
8:20 PM39 °FOvercast.12 mph75%30.30 "HgN/A
7:50 PM39 °FOvercast.13 mph75%30.30 "HgN/A
7:20 PM39 °FOvercast.13 mph75%30.30 "HgN/A
6:50 PM39 °FMostly cloudy.14 mph75%30.30 "HgN/A
6:20 PM39 °FOvercast.10 mph75%30.30 "HgN/A
5:50 PM39 °FOvercast.12 mph81%30.33 "HgN/A
5:20 PM39 °FOvercast.12 mph81%30.30 "HgN/A
4:50 PM39 °FLight rain. Fog.10 mph87%30.30 "Hg3 mi
4:20 PM39 °FLight rain. Fog.12 mph87%30.30 "Hg3 mi
3:50 PM39 °FRain. Fog.10 mph87%30.33 "Hg3 mi
3:20 PM39 °FLight rain. Broken clouds.13 mph81%30.33 "Hg5 mi
2:50 PM39 °FLight rain. Broken clouds.10 mph81%30.33 "HgN/A
2:20 PM39 °FLight rain. Partly sunny.12 mph81%30.33 "Hg5 mi
1:50 PM41 °FPartly sunny.13 mph70%30.33 "HgN/A
1:20 PM41 °FPartly sunny.14 mph70%30.30 "HgN/A
12:50 PM41 °FPartly sunny.14 mph70%30.33 "HgN/A
12:20 PM41 °FPartly sunny.14 mph66%30.33 "HgN/A
11:50 AM41 °FPartly sunny.12 mph66%30.33 "HgN/A
11:20 AM41 °FPartly sunny.13 mph66%30.33 "HgN/A
10:50 AM41 °FPartly sunny.14 mph66%30.33 "HgN/A
10:20 AM41 °FPartly sunny.15 mph66%30.33 "HgN/A
9:50 AM41 °FPartly sunny.14 mph66%30.33 "HgN/A
9:20 AM41 °FPartly sunny.12 mph66%30.33 "HgN/A
8:50 AM41 °FPartly sunny.16 mph66%30.33 "HgN/A
8:20 AM41 °FPartly sunny.14 mph66%30.33 "HgN/A
Weather by CustomWeather, © 2016

See weather overviewHow to use our weather pages